Location: Coopersdale
(40.3556°N, 78.9372°W)
Time: 09:33:03
(UTC+00:00)

Envisat - Pass Details

Date: 02 December 2020
Orbit: 764 x 766 km, 98.1° (Epoch: 15 January)

Event Time Altitude Azimuth Distance (km) Brightness Sun altitude
Rises 09:44:32 0° 35° (NE) 3,239 6.6 -29.1°
Reaches altitude 10° 09:48:20 10° 64° (ENE) 2,306 6.2 -28.4°
Maximum altitude 09:50:28 13° 89° (E) 2,128 6.2 -28.0°
Drops below altitude 10° 09:52:35 10° 114° (ESE) 2,298 6.3 -27.6°
Sets 09:56:21 0° 143° (SE) 3,217 6.8 -26.9°
